| time (UTC) | temp F | wind direction | speed knots | gust knots | rain 1hr in | rain 24hr in | rain mn in | humidity % | barometer mb |
| 20260904150504 | 68 | 275 | 0.9 | 0.9 | 0.00 | 0.00 | 0.00 | 94 | 984.5 |
| 20260904150004 | 68 | 0 | 0.0 | 0.0 | 0.00 | 0.00 | 0.00 | 93 | 984.4 |
| 20260904145504 | 68 | 0 | 0.0 | 0.0 | 0.00 | 0.00 | 0.00 | 94 | 984.3 |
| 20260904145004 | 68 | 154 | 0.9 | 2.6 | 0.00 | 0.00 | 0.00 | 93 | 984.4 |
| 20260904143420 | 68 | 279 | 0.9 | 1.7 | 0.00 | 0.00 | 0.00 | 93 | 984.5 |
| 20260904142920 | 68 | 316 | 0.9 | 1.7 | 0.00 | 0.00 | 0.00 | 94 | 984.4 |
| 20260904142420 | 68 | 251 | 1.7 | 2.6 | 0.00 | 0.00 | 0.00 | 94 | 984.3 |
| 20260904141920 | 68 | 0 | 0.0 | 0.0 | 0.00 | 0.00 | 0.00 | 94 | 984.2 |
| 20260904141419 | 68 | 0 | 0.0 | 0.0 | 0.00 | 0.00 | 0.00 | 94 | 984.1 |
| 20260904140919 | 68 | 253 | 0.9 | 1.7 | 0.00 | 0.00 | 0.00 | 94 | 984.1 |
| 20260904140419 | 68 | 153 | 0.9 | 1.7 | 0.00 | 0.00 | 0.00 | 95 | 984.0 |
| 20260904135918 | 68 | 153 | 0.9 | 0.9 | 0.00 | 0.00 | 0.00 | 95 | 983.9 |
| 20260904135418 | 67 | 0 | 0.0 | 0.0 | 0.00 | 0.00 | 0.00 | 95 | 983.7 |
| 20260904134917 | 67 | 171 | 0.9 | 1.7 | 0.00 | 0.00 | 0.00 | 96 | 983.8 |
| 20260904134417 | 67 | 246 | 0.9 | 1.7 | 0.00 | 0.00 | 0.00 | 95 | 983.7 |
| 20260904133916 | 67 | 165 | 0.9 | 1.7 | 0.00 | 0.00 | 0.00 | 95 | 983.6 |
| 20260904133416 | 67 | 0 | 0.0 | 0.0 | 0.00 | 0.00 | 0.00 | 96 | 983.6 |
| 20260904132916 | 66 | 167 | 1.7 | 2.6 | 0.00 | 0.00 | 0.00 | 96 | 983.6 |
| 20260904131854 | 66 | 157 | 1.7 | 1.7 | 0.00 | 0.00 | 0.00 | 95 | 983.7 |
| 20260904131354 | 66 | 140 | 0.9 | 1.7 | 0.00 | 0.00 | 0.00 | 96 | 983.7 |
| 20260904130854 | 66 | 177 | 0.9 | 1.7 | 0.00 | 0.00 | 0.00 | 97 | 983.8 |
| 20260904130354 | 66 | 179 | 1.7 | 2.6 | 0.00 | 0.00 | 0.00 | 97 | 983.8 |
| 20260904125853 | 65 | 154 | 1.7 | 2.6 | 0.00 | 0.00 | 0.00 | 97 | 983.8 |
| 20260904125353 | 65 | 123 | 0.9 | 0.9 | 0.00 | 0.00 | 0.00 | 97 | 983.9 |
| 20260904124332 | 66 | 0 | 0.0 | 0.0 | 0.00 | 0.00 | 0.00 | 98 | 984.0 |
| 20260904123832 | 66 | 252 | 0.9 | 1.7 | 0.00 | 0.00 | 0.00 | 98 | 984.0 |
| 20260904123331 | 66 | 0 | 0.0 | 0.0 | 0.00 | 0.00 | 0.00 | 98 | 984.0 |
| 20260904122830 | 66 | 0 | 0.0 | 0.0 | 0.00 | 0.00 | 0.00 | 98 | 984.0 |
| 20260904122330 | 66 | 134 | 0.9 | 0.9 | 0.00 | 0.00 | 0.00 | 98 | 983.9 |
| 20260904121830 | 65 | 0 | 0.0 | 0.0 | 0.00 | 0.00 | 0.00 | 98 | 983.9 |
| 20260904121330 | 65 | 162 | 0.9 | 1.7 | 0.00 | 0.00 | 0.00 | 98 | 983.8 |
| 20260904120829 | 65 | 151 | 0.9 | 1.7 | 0.00 | 0.00 | 0.00 | 98 | 983.9 |
| 20260904120329 | 65 | 0 | 0.0 | 0.0 | 0.00 | 0.00 | 0.00 | 98 | 983.8 |
| 20260904115828 | 65 | 0 | 0.0 | 0.0 | 0.00 | 0.00 | 0.00 | 98 | 983.6 |
| 20260904115328 | 65 | 0 | 0.0 | 0.0 | 0.00 | 0.00 | 0.00 | 98 | 983.6 |
| 20260904114828 | 65 | 0 | 0.0 | 0.0 | 0.00 | 0.00 | 0.00 | 98 | 983.6 |
| 20260904114328 | 65 | 21 | 0.0 | 0.9 | 0.00 | 0.00 | 0.00 | 98 | 983.5 |
| 20260904113827 | 65 | 0 | 0.0 | 0.0 | 0.00 | 0.00 | 0.00 | 98 | 983.4 |
| 20260904112806 | 64 | 0 | 0.0 | 0.0 | 0.00 | 0.00 | 0.00 | 98 | 983.5 |
| 20260904112306 | 64 | 0 | 0.0 | 0.0 | 0.00 | 0.00 | 0.00 | 98 | 983.4 |
| 20260904111244 | 64 | 0 | 0.0 | 0.0 | 0.00 | 0.00 | 0.00 | 98 | 983.3 |
| 20260904110744 | 64 | 0 | 0.0 | 0.0 | 0.00 | 0.00 | 0.00 | 98 | 983.3 |
| 20260904110244 | 64 | 0 | 0.0 | 0.0 | 0.00 | 0.00 | 0.00 | 98 | 983.2 |
| 20260904105744 | 64 | 0 | 0.0 | 0.0 | 0.00 | 0.00 | 0.00 | 98 | 982.9 |
| 20260904105243 | 64 | 0 | 0.0 | 0.0 | 0.00 | 0.00 | 0.00 | 98 | 982.8 |
| 20260904104743 | 65 | 0 | 0.0 | 0.0 | 0.00 | 0.00 | 0.00 | 98 | 982.7 |
| 20260904104243 | 65 | 0 | 0.0 | 0.0 | 0.00 | 0.00 | 0.00 | 98 | 982.8 |
| 20260904103222 | 65 | 44 | 0.9 | 1.7 | 0.00 | 0.00 | 0.00 | 98 | 982.8 |
| 20260904102721 | 65 | 0 | 0.0 | 0.0 | 0.00 | 0.00 | 0.00 | 98 | 982.8 |
| 20260904102220 | 65 | 150 | 1.7 | 1.7 | 0.00 | 0.00 | 0.00 | 98 | 982.7 |
| 20260904101720 | 65 | 0 | 0.0 | 0.0 | 0.00 | 0.00 | 0.00 | 98 | 982.8 |
| 20260904101220 | 65 | 0 | 0.0 | 0.0 | 0.00 | 0.00 | 0.00 | 98 | 982.8 |
| 20260904100720 | 65 | 0 | 0.0 | 0.0 | 0.00 | 0.00 | 0.00 | 98 | 982.9 |
| 20260904100220 | 65 | 0 | 0.0 | 0.0 | 0.00 | 0.00 | 0.00 | 98 | 982.9 |
| 20260904095720 | 65 | 0 | 0.0 | 0.0 | 0.00 | 0.00 | 0.00 | 98 | 982.8 |
| 20260904095219 | 65 | 135 | 1.7 | 1.7 | 0.00 | 0.00 | 0.00 | 98 | 982.9 |
| 20260904094719 | 65 | 0 | 0.0 | 0.0 | 0.00 | 0.00 | 0.00 | 98 | 983.0 |
| 20260904094219 | 65 | 0 | 0.0 | 0.0 | 0.00 | 0.00 | 0.00 | 98 | 983.0 |
| 20260904093719 | 65 | 0 | 0.0 | 0.0 | 0.00 | 0.00 | 0.00 | 98 | 983.1 |
| 20260904093219 | 65 | 0 | 0.0 | 0.0 | 0.00 | 0.00 | 0.00 | 98 | 983.1 |
| 20260904092718 | 65 | 0 | 0.0 | 0.0 | 0.00 | 0.00 | 0.00 | 98 | 983.1 |
| 20260904092218 | 65 | 0 | 0.0 | 0.0 | 0.00 | 0.00 | 0.00 | 98 | 983.0 |
| 20260904091718 | 65 | 0 | 0.0 | 0.0 | 0.00 | 0.00 | 0.00 | 98 | 982.9 |
| 20260904091218 | 65 | 40 | 0.9 | 1.7 | 0.00 | 0.00 | 0.00 | 98 | 982.9 |
| 20260904090156 | 65 | 59 | 0.9 | 1.7 | 0.00 | 0.00 | 0.00 | 98 | 983.0 |
| 20260904085135 | 65 | 0 | 0.0 | 0.0 | 0.00 | 0.00 | 0.00 | 98 | 982.9 |
| 20260904084634 | 65 | 0 | 0.0 | 0.0 | 0.00 | 0.00 | 0.00 | 98 | 982.9 |
| 20260904084134 | 65 | 24 | 0.9 | 1.7 | 0.00 | 0.00 | 0.00 | 97 | 982.9 |
| 20260904083634 | 65 | 0 | 0.0 | 0.0 | 0.00 | 0.00 | 0.00 | 97 | 982.7 |
| 20260904083134 | 65 | 0 | 0.0 | 0.0 | 0.00 | 0.00 | 0.00 | 97 | 982.6 |
| 20260904082634 | 65 | 0 | 0.0 | 0.0 | 0.00 | 0.00 | 0.00 | 97 | 982.6 |
| 20260904082132 | 65 | 0 | 0.0 | 0.0 | 0.00 | 0.00 | 0.00 | 97 | 982.6 |
| 20260904081632 | 65 | 0 | 0.0 | 0.0 | 0.00 | 0.00 | 0.00 | 97 | 982.7 |
| 20260904081132 | 66 | 0 | 0.0 | 0.0 | 0.00 | 0.00 | 0.00 | 97 | 982.7 |
| 20260904080632 | 66 | 0 | 0.0 | 0.0 | 0.00 | 0.00 | 0.00 | 97 | 982.8 |
| 20260904075610 | 66 | 25 | 0.9 | 0.9 | 0.00 | 0.00 | 0.00 | 97 | 982.9 |
| 20260904075110 | 66 | 345 | 0.9 | 2.6 | 0.00 | 0.00 | 0.00 | 97 | 982.9 |
| 20260904074610 | 66 | 12 | 0.9 | 1.7 | 0.00 | 0.00 | 0.00 | 97 | 983.0 |
| 20260904074110 | 66 | 58 | 1.7 | 2.6 | 0.00 | 0.00 | 0.00 | 97 | 983.0 |
| 20260904073609 | 66 | 236 | 0.9 | 2.6 | 0.00 | 0.00 | 0.00 | 97 | 983.0 |
| 20260904073109 | 66 | 45 | 2.6 | 2.6 | 0.00 | 0.00 | 0.00 | 97 | 983.2 |
| 20260904072609 | 66 | 351 | 1.7 | 3.5 | 0.00 | 0.00 | 0.00 | 97 | 983.3 |
| 20260904072109 | 66 | 359 | 0.9 | 2.6 | 0.00 | 0.00 | 0.00 | 96 | 983.3 |
| 20260904071608 | 66 | 357 | 1.7 | 2.6 | 0.00 | 0.00 | 0.00 | 96 | 983.3 |
| 20260904071108 | 66 | 346 | 0.9 | 1.7 | 0.00 | 0.00 | 0.00 | 96 | 983.4 |
| 20260904070608 | 66 | 352 | 2.6 | 4.3 | 0.00 | 0.00 | 0.00 | 96 | 983.5 |
| 20260904070108 | 66 | 0 | 0.0 | 0.0 | 0.00 | 0.00 | 0.00 | 96 | 983.5 |
| 20260904065046 | 67 | 0 | 0.0 | 0.0 | 0.00 | 0.00 | 0.00 | 96 | 983.4 |
| 20260904064546 | 67 | 332 | 2.6 | 4.3 | 0.00 | 0.00 | 0.00 | 96 | 983.4 |
| 20260904064046 | 67 | 343 | 1.7 | 4.3 | 0.00 | 0.00 | 0.00 | 96 | 983.3 |
| 20260904063025 | 67 | 340 | 0.9 | 2.6 | 0.00 | 0.00 | 0.00 | 96 | 983.2 |
| 20260904062524 | 67 | 4 | 0.9 | 1.7 | 0.00 | 0.00 | 0.00 | 97 | 983.2 |
| 20260904062024 | 67 | 332 | 0.9 | 1.7 | 0.00 | 0.00 | 0.00 | 97 | 983.3 |
| 20260904061523 | 67 | 13 | 1.7 | 2.6 | 0.00 | 0.00 | 0.00 | 97 | 983.4 |
| 20260904061023 | 67 | 0 | 0.0 | 0.0 | 0.00 | 0.00 | 0.00 | 97 | 983.3 |
| 20260904060523 | 67 | 0 | 0.0 | 0.0 | 0.00 | 0.00 | 0.00 | 97 | 983.3 |
| 20260904060023 | 67 | 336 | 1.7 | 1.7 | 0.00 | 0.00 | 0.00 | 97 | 983.3 |
| 20260904055522 | 67 | 354 | 0.9 | 2.6 | 0.00 | 0.00 | 0.00 | 97 | 983.3 |
| 20260904055022 | 67 | 343 | 0.0 | 0.9 | 0.00 | 0.00 | 0.00 | 97 | 983.5 |
| 20260904054522 | 67 | 324 | 1.7 | 4.3 | 0.00 | 0.00 | 0.00 | 97 | 983.6 |
| 20260904054022 | 67 | 314 | 2.6 | 4.3 | 0.00 | 0.00 | 0.00 | 97 | 983.5 |
| 20260904053522 | 67 | 326 | 1.7 | 2.6 | 0.00 | 0.00 | 0.00 | 97 | 983.4 |
| 20260904052500 | 67 | 358 | 3.5 | 5.2 | 0.00 | 0.00 | 0.00 | 97 | 983.5 |
| 20260904051959 | 68 | 342 | 2.6 | 5.2 | 0.00 | 0.00 | 0.00 | 97 | 983.5 |
| 20260904050938 | 68 | 343 | 1.7 | 3.5 | 0.00 | 0.00 | 0.00 | 97 | 983.4 |
| 20260904050438 | 68 | 353 | 0.9 | 2.6 | 0.00 | 0.00 | 0.00 | 97 | 983.4 |
| 20260904045937 | 68 | 322 | 0.9 | 2.6 | 0.00 | 0.00 | 0.00 | 97 | 983.4 |
| 20260904045437 | 68 | 318 | 1.7 | 2.6 | 0.00 | 0.00 | 0.00 | 97 | 983.4 |
| 20260904044937 | 68 | 323 | 0.9 | 1.7 | 0.00 | 0.00 | 0.00 | 97 | 983.3 |
| 20260904044437 | 68 | 324 | 0.9 | 1.7 | 0.00 | 0.00 | 0.00 | 97 | 983.3 |
| 20260904043936 | 68 | 330 | 0.9 | 1.7 | 0.00 | 0.00 | 0.00 | 97 | 983.3 |
| 20260904043436 | 68 | 0 | 0.0 | 0.0 | 0.00 | 0.00 | 0.00 | 97 | 983.3 |
| 20260904041853 | 68 | 0 | 0.0 | 0.0 | 0.00 | 0.00 | 0.00 | 97 | 983.2 |
| 20260904041353 | 68 | 335 | 1.7 | 2.6 | 0.00 | 0.00 | 0.00 | 97 | 983.1 |
| 20260904040852 | 68 | 320 | 1.7 | 3.5 | 0.00 | 0.00 | 0.00 | 97 | 983.0 |
| 20260904034227 | 68 | 217 | 0.9 | 1.7 | 0.00 | 0.00 | 0.00 | 97 | 983.0 |
| 20260904033727 | 68 | 353 | 0.9 | 2.6 | 0.00 | 0.00 | 0.00 | 97 | 983.0 |
| 20260904033227 | 68 | 12 | 1.7 | 2.6 | 0.00 | 0.00 | 0.00 | 97 | 983.0 |
| 20260904032727 | 68 | 12 | 1.7 | 2.6 | 0.00 | 0.00 | 0.00 | 97 | 982.9 |
| 20260904031705 | 68 | 349 | 0.0 | 0.9 | 0.00 | 0.00 | 0.00 | 97 | 982.9 |
| 20260904031204 | 68 | 283 | 0.9 | 1.7 | 0.00 | 0.00 | 0.00 | 97 | 982.9 |
| 20260904030143 | 68 | 346 | 2.6 | 3.5 | 0.00 | 0.00 | 0.00 | 97 | 982.8 |
| 20260904025121 | 68 | 355 | 0.9 | 1.7 | 0.00 | 0.00 | 0.00 | 97 | 982.6 |
| 20260904024621 | 68 | 330 | 1.7 | 2.6 | 0.00 | 0.00 | 0.00 | 97 | 982.5 |
| 20260904023559 | 68 | 257 | 1.7 | 2.6 | 0.00 | 0.00 | 0.00 | 97 | 982.5 |
| 20260904023059 | 68 | 247 | 0.9 | 2.6 | 0.00 | 0.00 | 0.00 | 97 | 982.6 |
| 20260904022038 | 68 | 292 | 0.9 | 1.7 | 0.00 | 0.00 | 0.00 | 97 | 982.6 |
| 20260904021537 | 68 | 288 | 1.7 | 3.5 | 0.00 | 0.00 | 0.00 | 97 | 982.7 |
| 20260904020516 | 68 | 258 | 1.7 | 2.6 | 0.00 | 0.00 | 0.00 | 97 | 982.7 |
| 20260904020016 | 68 | 280 | 1.7 | 2.6 | 0.00 | 0.00 | 0.00 | 97 | 982.7 |
| 20260904015515 | 68 | 266 | 2.6 | 3.5 | 0.00 | 0.00 | 0.00 | 97 | 982.7 |
| 20260904015014 | 69 | 257 | 1.7 | 2.6 | 0.00 | 0.00 | 0.00 | 97 | 982.5 |
| 20260904014513 | 69 | 259 | 2.6 | 3.5 | 0.00 | 0.00 | 0.00 | 97 | 982.5 |
| 20260904014013 | 69 | 269 | 0.9 | 1.7 | 0.00 | 0.00 | 0.00 | 97 | 982.4 |
| 20260904013513 | 69 | 275 | 2.6 | 4.3 | 0.00 | 0.00 | 0.00 | 97 | 982.4 |
| 20260904013013 | 69 | 297 | 0.9 | 1.7 | 0.00 | 0.00 | 0.00 | 97 | 982.3 |
| 20260904012512 | 69 | 261 | 1.7 | 2.6 | 0.00 | 0.00 | 0.00 | 97 | 982.2 |
| 20260904012012 | 69 | 249 | 0.9 | 2.6 | 0.00 | 0.00 | 0.00 | 97 | 982.2 |
| 20260904011511 | 69 | 238 | 1.7 | 2.6 | 0.00 | 0.00 | 0.00 | 97 | 982.2 |
| 20260904011010 | 69 | 275 | 1.7 | 2.6 | 0.00 | 0.00 | 0.00 | 97 | 982.2 |
| 20260904010510 | 69 | 289 | 1.7 | 2.6 | 0.00 | 0.00 | 0.00 | 97 | 982.1 |
| 20260904005448 | 70 | 258 | 1.7 | 2.6 | 0.00 | 0.00 | 0.00 | 97 | 982.0 |
| 20260904004948 | 70 | 302 | 1.7 | 2.6 | 0.00 | 0.00 | 0.00 | 97 | 982.0 |
| 20260904004448 | 70 | 285 | 1.7 | 2.6 | 0.00 | 0.00 | 0.00 | 97 | 982.0 |
| 20260904003426 | 70 | 282 | 0.9 | 0.9 | 0.00 | 0.00 | 0.00 | 97 | 981.8 |
| 20260904002926 | 70 | 264 | 2.6 | 3.5 | 0.00 | 0.00 | 0.00 | 96 | 981.8 |
| 20260904002426 | 71 | 291 | 2.6 | 3.5 | 0.00 | 0.00 | 0.00 | 96 | 981.9 |
| 20260904001926 | 71 | 289 | 2.6 | 3.5 | 0.00 | 0.00 | 0.00 | 97 | 981.8 |
| 20260904001426 | 71 | 279 | 2.6 | 2.6 | 0.00 | 0.00 | 0.00 | 97 | 981.7 |
| 20260904000925 | 71 | 252 | 1.7 | 2.6 | 0.00 | 0.00 | 0.00 | 97 | 981.6 |
| 20260904000425 | 71 | 325 | 1.7 | 3.5 | 0.00 | 0.00 | 0.00 | 97 | 981.6 |
| 20260903235925 | 71 | 0 | 0.0 | 0.0 | 0.00 | 0.00 | 0.00 | 96 | 981.4 |
| 20260903235425 | 71 | 0 | 0.0 | 0.0 | 0.00 | 0.00 | 0.00 | 96 | 981.3 |
| 20260903234924 | 71 | 0 | 0.0 | 0.0 | 0.00 | 0.00 | 0.00 | 96 | 981.4 |
| 20260903234424 | 71 | 299 | 0.9 | 1.7 | 0.00 | 0.00 | 0.00 | 96 | 981.4 |
| 20260903233923 | 71 | 336 | 1.7 | 2.6 | 0.00 | 0.00 | 0.00 | 96 | 981.6 |
| 20260903233423 | 71 | 345 | 2.6 | 5.2 | 0.00 | 0.00 | 0.00 | 96 | 981.8 |
| 20260903232923 | 71 | 355 | 0.9 | 2.6 | 0.00 | 0.00 | 0.00 | 96 | 981.7 |
| 20260903232422 | 71 | 326 | 1.7 | 4.3 | 0.00 | 0.00 | 0.00 | 96 | 981.4 |
| 20260903231922 | 71 | 269 | 1.7 | 3.5 | 0.00 | 0.00 | 0.00 | 96 | 981.0 |
| 20260903231422 | 71 | 272 | 0.9 | 1.7 | 0.00 | 0.00 | 0.00 | 96 | 980.8 |
| 20260903230400 | 71 | 174 | 1.7 | 2.6 | 0.00 | 0.00 | 0.00 | 96 | 980.6 |
| 20260903225900 | 71 | 0 | 0.0 | 0.0 | 0.00 | 0.00 | 0.00 | 96 | 980.6 |
| 20260903224317 | 71 | 323 | 1.7 | 2.6 | 0.00 | 0.00 | 0.00 | 96 | 981.0 |
| 20260903223817 | 71 | 340 | 2.6 | 3.5 | 0.00 | 0.00 | 0.00 | 96 | 981.1 |
| 20260903223317 | 71 | 332 | 0.9 | 2.6 | 0.00 | 0.00 | 0.00 | 95 | 980.7 |
| 20260903222816 | 71 | 278 | 1.7 | 3.5 | 0.00 | 0.00 | 0.00 | 95 | 980.6 |
| 20260903222316 | 71 | 272 | 2.6 | 5.2 | 0.00 | 0.00 | 0.00 | 95 | 980.5 |
| 20260903221816 | 71 | 240 | 1.7 | 3.5 | 0.00 | 0.00 | 0.00 | 95 | 980.7 |
| 20260903221315 | 72 | 250 | 0.9 | 3.5 | 0.00 | 0.00 | 0.00 | 95 | 980.6 |
| 20260903220815 | 72 | 245 | 1.7 | 3.5 | 0.00 | 0.00 | 0.00 | 95 | 980.8 |
| 20260903220315 | 72 | 261 | 1.7 | 3.5 | 0.00 | 0.00 | 0.00 | 95 | 981.0 |
| 20260903215814 | 72 | 314 | 1.7 | 3.5 | 0.00 | 0.00 | 0.00 | 95 | 981.2 |
| 20260903214753 | 72 | 306 | 3.5 | 6.1 | 0.00 | 0.00 | 0.00 | 95 | 981.2 |
| 20260903214253 | 72 | 17 | 0.9 | 0.9 | 0.00 | 0.00 | 0.00 | 95 | 981.2 |
| 20260903213753 | 73 | 13 | 1.7 | 4.3 | 0.00 | 0.00 | 0.00 | 95 | 981.4 |
| 20260903212731 | 74 | 340 | 2.6 | 4.3 | 0.00 | 0.00 | 0.00 | 95 | 981.9 |
| 20260903212231 | 74 | 340 | 1.7 | 3.5 | 0.00 | 0.00 | 0.00 | 95 | 982.1 |
| 20260903211731 | 74 | 347 | 2.6 | 6.1 | 0.00 | 0.00 | 0.00 | 95 | 982.0 |
| 20260903210709 | 75 | 321 | 4.3 | 6.1 | 0.00 | 0.00 | 0.00 | 95 | 982.2 |
| 20260903205647 | 75 | 293 | 4.3 | 7.0 | 0.00 | 0.00 | 0.00 | 95 | 982.4 |
| 20260903205147 | 76 | 322 | 5.2 | 7.0 | 0.00 | 0.00 | 0.00 | 95 | 982.2 |
| 20260903204647 | 76 | 337 | 3.5 | 7.0 | 0.00 | 0.00 | 0.00 | 94 | 981.8 |
| 20260903204147 | 77 | 323 | 1.7 | 3.5 | 0.00 | 0.00 | 0.00 | 93 | 981.8 |
| 20260903203646 | 77 | 305 | 2.6 | 3.5 | 0.00 | 0.00 | 0.00 | 92 | 981.7 |
| 20260903203146 | 78 | 306 | 2.6 | 3.5 | 0.00 | 0.00 | 0.00 | 90 | 981.6 |
| 20260903202646 | 78 | 328 | 1.7 | 3.5 | 0.00 | 0.00 | 0.00 | 89 | 981.3 |
| 20260903201625 | 78 | 263 | 2.6 | 4.3 | 0.00 | 0.00 | 0.00 | 88 | 981.1 |
| 20260903201124 | 78 | 233 | 0.9 | 1.7 | 0.00 | 0.00 | 0.00 | 88 | 981.0 |
| 20260903200624 | 78 | 0 | 0.0 | 0.0 | 0.00 | 0.00 | 0.00 | 87 | 980.9 |
| 20260903200124 | 78 | 256 | 0.9 | 1.7 | 0.00 | 0.00 | 0.00 | 87 | 980.8 |
| 20260903195624 | 78 | 320 | 0.9 | 1.7 | 0.00 | 0.00 | 0.00 | 87 | 980.8 |
| 20260903195123 | 78 | 308 | 0.9 | 1.7 | 0.00 | 0.00 | 0.00 | 87 | 980.8 |
| 20260903194623 | 79 | 321 | 1.7 | 2.6 | 0.00 | 0.00 | 0.00 | 87 | 980.7 |
| 20260903194123 | 79 | 58 | 0.9 | 2.6 | 0.00 | 0.00 | 0.00 | 87 | 980.7 |
| 20260903193101 | 79 | 324 | 0.9 | 3.5 | 0.00 | 0.00 | 0.00 | 86 | 980.7 |
| 20260903192601 | 79 | 336 | 1.7 | 3.5 | 0.00 | 0.00 | 0.00 | 85 | 980.8 |
| 20260903192101 | 79 | 250 | 0.9 | 2.6 | 0.00 | 0.00 | 0.00 | 86 | 980.8 |
| 20260903191600 | 79 | 320 | 1.7 | 2.6 | 0.00 | 0.00 | 0.00 | 85 | 980.7 |
| 20260903191100 | 79 | 329 | 3.5 | 5.2 | 0.00 | 0.00 | 0.00 | 85 | 980.8 |
| 20260903190600 | 80 | 331 | 2.6 | 4.3 | 0.00 | 0.00 | 0.00 | 84 | 980.7 |
| 20260903190100 | 80 | 72 | 1.7 | 3.5 | 0.00 | 0.00 | 0.00 | 84 | 980.7 |
| 20260903185600 | 80 | 350 | 4.3 | 7.8 | 0.00 | 0.00 | 0.00 | 82 | 980.9 |
| 20260903185059 | 80 | 324 | 2.6 | 3.5 | 0.00 | 0.00 | 0.00 | 82 | 981.0 |
| 20260903184559 | 80 | 350 | 3.5 | 7.0 | 0.00 | 0.00 | 0.00 | 82 | 980.9 |
| 20260903183538 | 80 | 295 | 3.5 | 4.3 | 0.00 | 0.00 | 0.00 | 81 | 981.2 |
| 20260903182516 | 81 | 315 | 2.6 | 4.3 | 0.00 | 0.00 | 0.00 | 80 | 981.6 |
| 20260903182016 | 81 | 316 | 4.3 | 6.1 | 0.00 | 0.00 | 0.00 | 80 | 981.7 |
| 20260903181516 | 81 | 273 | 4.3 | 7.0 | 0.00 | 0.00 | 0.00 | 79 | 981.6 |
| 20260903181016 | 81 | 293 | 3.5 | 5.2 | 0.00 | 0.00 | 0.00 | 79 | 981.6 |
| 20260903180515 | 81 | 290 | 4.3 | 7.0 | 0.00 | 0.00 | 0.00 | 78 | 981.6 |
| 20260903180015 | 81 | 275 | 4.3 | 6.1 | 0.00 | 0.00 | 0.00 | 79 | 981.7 |
| 20260903175515 | 81 | 312 | 2.6 | 4.3 | 0.00 | 0.00 | 0.00 | 78 | 981.7 |
| 20260903175015 | 81 | 305 | 5.2 | 7.8 | 0.00 | 0.00 | 0.00 | 78 | 981.7 |
| 20260903174515 | 81 | 306 | 4.3 | 7.8 | 0.00 | 0.00 | 0.00 | 78 | 981.7 |
| 20260903173453 | 80 | 321 | 4.3 | 7.0 | 0.00 | 0.00 | 0.00 | 78 | 981.9 |
| 20260903172432 | 81 | 302 | 6.1 | 8.7 | 0.00 | 0.00 | 0.00 | 78 | 981.9 |
| 20260903171932 | 80 | 308 | 4.3 | 6.1 | 0.00 | 0.00 | 0.00 | 78 | 981.9 |
| 20260903171431 | 80 | 296 | 4.3 | 5.2 | 0.00 | 0.00 | 0.00 | 77 | 981.9 |
| 20260903170930 | 80 | 290 | 5.2 | 7.0 | 0.00 | 0.00 | 0.00 | 77 | 981.8 |
| 20260903170430 | 80 | 284 | 3.5 | 4.3 | 0.00 | 0.00 | 0.00 | 77 | 981.6 |
| 20260903165930 | 80 | 329 | 3.5 | 5.2 | 0.00 | 0.00 | 0.00 | 77 | 981.8 |
| 20260903165429 | 80 | 308 | 6.1 | 10.4 | 0.00 | 0.00 | 0.00 | 78 | 981.8 |
| 20260903164928 | 80 | 262 | 3.5 | 5.2 | 0.00 | 0.00 | 0.00 | 80 | 982.0 |
| 20260903164428 | 79 | 275 | 3.5 | 5.2 | 0.00 | 0.00 | 0.00 | 81 | 982.2 |
| 20260903163928 | 79 | 295 | 3.5 | 5.2 | 0.00 | 0.00 | 0.00 | 82 | 982.1 |
| 20260903162345 | 79 | 294 | 4.3 | 7.8 | 0.00 | 0.00 | 0.00 | 78 | 982.1 |
| 20260903161845 | 79 | 282 | 2.6 | 3.5 | 0.00 | 0.00 | 0.00 | 79 | 982.2 |
| 20260903161344 | 79 | 267 | 4.3 | 5.2 | 0.00 | 0.00 | 0.00 | 80 | 982.2 |
| 20260903160844 | 80 | 275 | 4.3 | 7.0 | 0.00 | 0.00 | 0.00 | 79 | 982.2 |
| 20260903160343 | 80 | 287 | 4.3 | 5.2 | 0.00 | 0.00 | 0.00 | 78 | 982.2 |
| 20260903155843 | 80 | 271 | 1.7 | 2.6 | 0.00 | 0.00 | 0.00 | 77 | 982.0 |
| 20260903155343 | 80 | 70 | 2.6 | 4.3 | 0.00 | 0.00 | 0.00 | 78 | 981.9 |
| 20260903154322 | 80 | 348 | 1.7 | 3.5 | 0.00 | 0.00 | 0.00 | 79 | 982.0 |
| 20260903153300 | 80 | 206 | 0.9 | 1.7 | 0.00 | 0.00 | 0.00 | 79 | 982.0 |
| 20260903151717 | 78 | 192 | 2.6 | 6.1 | 0.00 | 0.00 | 0.00 | 85 | 982.0 |
| 20260903151217 | 78 | 264 | 0.9 | 1.7 | 0.00 | 0.00 | 0.00 | 84 | 982.1 |
| 20260903150717 | 77 | 165 | 2.6 | 5.2 | 0.00 | 0.00 | 0.00 | 86 | 982.2 |